Weather in Kosolmanka

Russia / Sverdlovsk Oblast     58°44′46″N   60°32′08″E
temp.,
°C
wind,
m/s
gust,
m/s
humid.,
%
clouds,
%
prec.,
mm/h
press.,
hPa
HPBL,
m
24 may, tue
tue2423:00+6s118451 0.1 100210
02:00+3s119485 0.0 100410
05:00+4se119498 0.0 100528
08:00+9sse127512 0.0 1006454
11:00+12s235895 0.2 10071450
14:00+12sse3455100 0.1 10081242
17:00+13se345766 0.1 1009914
20:00+12ene2270100 0.0 101031
25 may, wed
wed2523:00+9e2385100 0.0 101151
02:00+8e1288100 0.0 101147
05:00+8nne3699100 5.8 1009178
08:00+12e41298100 2.9 1007550
11:00+16sse4890100 3.2 1007615
14:00+21se3562100 0.0 10061084
17:00+22sse71349100 0.0 10031997
20:00+17se31368100 0.3 1004483
26 may, thu
thu2623:00+15se71679100 1.0 1003755
02:00+9sw41193100 0.0 1006443
05:00+9sw2690100 0.0 1007420
08:00+10ssw3584100 0.0 1008389
11:00+10ssw3691100 3.3 1008760
14:00+12sw5760100 0.1 10101479
17:00+10w4658100 0.1 10121172
20:00+10wnw3864100 0.0 1010985
27 may, fri
fri2723:00+6w2281100 0.0 101253
02:00+5w3883100 0.0 1012228
05:00+3wsw37905 0.0 1012151
08:00+9w48660 0.0 1012702
11:00+13wsw464612 0.0 10111759
14:00+16wsw474247 0.0 10111974
17:00+15wsw385084 0.0 10111774
20:00+12ssw0068100 0.0 101110
28 may, sat
sat2823:00+9se247935 0.0 101160
02:00+8s2686100 0.0 1011105
05:00+7s288897 0.0 1011145
08:00+13s376484 0.0 1011446
11:00+18s484628 0.0 10101899
14:00+17ssw3553100 0.0 1010905
17:00+19s354878 0.0 10111821
20:00+15s26725 0.1 1012225